Latest Weather Observations for Archerfield

IDQ60801

Issued at 3:05 pm EST Sunday 26 October 2014 (issued every 30 minutes, with the page automatically refreshed every 10 minutes)

About weather observations | Map of weather stations | Latest weather observations for QLD | Other Formats
Station Details ID: 040211 Name: ARCHERFIELD AIRPORT Lat: -27.57 Lon: 153.01 Height: 12.5 m
Data from the previous 72 hours. | See also: Recent months at Archerfield
Date/Time
EST
Temp
°C
App
Temp
°C
Dew
Point
Rel
Hum
%
Delta-T
°C
Wind Press
QNH
hPa
Press
MSL
hPa
Rain
since 9 am
mm
Dir
 
Spd
km/h
Gust
km/h
Spd
kts
Gust
kts
26/03:00pm 27.4 24.3 18.4 58 5.7 N 32 44 17 24 1011.2 1011.1 0.0
26/02:30pm 27.3 24.3 18.6 59 5.6 NNE 32 41 17 22 1011.4 1011.3 0.0
26/02:00pm 29.3 26.5 19.0 53 6.7 N 32 43 17 23 1011.8 1011.7 0.0
26/01:30pm 29.4 26.9 18.8 53 6.8 N 30 35 16 19 1012.3 1012.2 0.0
26/01:00pm 28.8 26.2 17.7 51 7.0 NNE 28 37 15 20 1013.0 1012.9 0.0
26/12:30pm 29.5 27.9 18.3 51 7.2 NNE 24 30 13 16 1013.5 1013.4 0.0
26/12:00pm 29.8 28.7 18.6 51 7.2 N 22 28 12 15 1013.9 1013.8 0.0
26/11:30am 29.9 28.8 17.4 47 7.9 NNE 19 28 10 15 1014.2 1014.1 0.0
26/11:00am 29.2 28.7 16.0 44 8.2 N 13 26 7 14 1014.6 1014.5 0.0
26/10:30am 28.7 28.5 16.6 48 7.5 NNE 13 19 7 10 1015.2 1015.1 0.0
26/10:00am 27.5 27.7 15.8 48 7.2 N 9 17 5 9 1015.8 1015.7 0.0
26/09:30am 27.2 28.2 17.7 56 6.0 NNE 9 17 5 9 1016.0 1015.9 0.0
26/09:00am 25.5 26.3 17.2 60 5.2 N 9 13 5 7 1016.3 1016.2 0.0
26/08:30am 24.5 25.3 17.2 63 4.5 N 9 13 5 7 1016.4 1016.3 0.0
26/08:00am 23.1 24.6 17.6 71 3.4 N 6 11 3 6 1016.6 1016.5 0.0
26/07:30am 22.5 24.3 17.4 73 3.1 NW 4 9 2 5 1016.5 1016.4 0.0
26/07:00am 21.7 24.0 17.7 78 2.5 NNW 2 6 1 3 1016.4 1016.3 0.0
26/06:30am 20.5 22.3 17.5 83 1.8 SSW 4 7 2 4 1016.4 1016.3 0.0
26/06:00am 19.5 20.4 17.6 89 1.2 ESE 9 11 5 6 1016.1 1016.0 0.0
26/05:30am 18.1 20.0 16.6 91 0.9 S 2 6 1 3 1015.8 1015.7 0.0
26/05:00am 17.9 20.1 16.4 91 0.9 CALM 0 0 0 0 1015.6 1015.5 0.0
26/04:30am 18.1 19.0 16.6 91 0.9 S 7 9 4 5 1015.5 1015.4 0.0
26/04:00am 18.2 19.2 16.9 92 0.8 SW 7 9 4 5 1015.4 1015.3 0.0
26/03:30am 17.9 18.8 16.2 90 1.0 W 6 7 3 4 1015.3 1015.2 0.0
26/03:00am 18.7 20.7 16.1 85 1.5 CALM 0 0 0 0 1015.3 1015.2 0.0
26/02:30am 18.9 21.0 16.3 85 1.6 CALM 0 6 0 3 1015.4 1015.3 0.0
26/02:00am 18.2 20.0 15.6 85 1.5 CALM 0 0 0 0 1015.3 1015.2 0.0
26/01:30am 19.0 20.8 15.5 80 2.1 CALM 0 0 0 0 1015.6 1015.5 0.0
26/01:00am 20.1 20.7 15.9 77 2.5 N 7 13 4 7 1015.9 1015.8 0.0
26/12:30am 21.1 21.1 16.3 74 2.9 N 11 17 6 9 1016.3 1016.2 0.0
26/12:00am 20.6 20.8 16.8 79 2.3 N 11 15 6 8 1016.4 1016.3 0.0
 
Date/Time
EST
Temp
°C
App
Temp
°C
Dew
Point
Rel
Hum
%
Delta-T
°C
Wind Press
QNH
hPa
Press
MSL
hPa
Rain
since 9 am
mm
Dir
 
Spd
km/h
Gust
km/h
Spd
kts
Gust
kts
25/11:30pm 21.6 20.9 17.4 77 2.6 N 17 22 9 12 1016.6 1016.5 0.0
25/11:00pm 21.6 21.1 17.8 79 2.4 NNE 17 24 9 13 1016.9 1016.8 0.0
25/10:30pm 21.8 21.7 17.8 78 2.5 NNE 15 20 8 11 1017.1 1017.0 0.0
25/10:00pm 22.3 22.0 18.3 78 2.5 NE 17 20 9 11 1017.2 1017.1 0.0
25/09:30pm 22.1 22.1 18.1 78 2.5 ENE 15 20 8 11 1017.1 1017.0 0.0
25/09:00pm 22.3 21.9 18.1 77 2.6 NE 17 24 9 13 1016.7 1016.6 0.0
25/08:30pm 22.2 21.5 18.2 78 2.5 NE 19 24 10 13 1016.3 1016.2 0.0
25/08:00pm 22.3 22.3 18.1 77 2.6 ENE 15 19 8 10 1016.4 1016.3 0.0
25/07:30pm 22.5 20.7 17.8 75 2.9 NNE 24 32 13 17 1015.6 1015.5 0.0
25/07:00pm 22.8 20.5 17.7 73 3.2 NNE 26 33 14 18 1015.2 1015.1 0.0
25/06:30pm 22.9 20.2 17.6 72 3.3 NNE 28 35 15 19 1014.9 1014.8 0.0
25/06:00pm 23.2 20.4 17.4 70 3.6 NNE 28 37 15 20 1014.6 1014.5 0.0
25/05:30pm 24.0 20.8 17.3 66 4.2 NNE 30 43 16 23 1014.4 1014.3 0.0
25/05:00pm 25.3 22.8 17.2 61 5.0 NNE 26 37 14 20 1014.2 1014.1 0.0
25/04:30pm 26.0 23.5 17.1 58 5.5 NNE 26 33 14 18 1014.0 1013.9 0.0
25/04:00pm 26.3 23.4 17.1 57 5.7 NNE 28 35 15 19 1014.2 1014.1 0.0
25/03:30pm 27.0 23.3 16.9 54 6.3 NNE 32 37 17 20 1014.2 1014.1 0.0
25/03:00pm 28.1 25.2 17.0 51 6.9 NNE 28 39 15 21 1014.8 1014.7 0.0
25/02:30pm 27.6 24.3 16.9 52 6.7 N 30 39 16 21 1015.0 1014.9 0.0
25/02:00pm 27.9 25.0 17.1 51 6.8 NNE 28 37 15 20 1015.4 1015.3 0.0
25/01:30pm 28.3 25.6 16.6 49 7.3 N 26 35 14 19 1015.7 1015.6 0.0
25/01:00pm 27.9 25.2 15.5 46 7.6 NNE 24 35 13 19 1016.2 1016.1 0.0
25/12:30pm 28.3 26.8 16.2 47 7.5 N 19 26 10 14 1016.8 1016.7 0.0
25/12:00pm 27.8 26.4 14.4 43 8.0 NNE 15 24 8 13 1017.3 1017.2 0.0
25/11:30am 28.0 27.5 15.0 45 7.9 NE 11 17 6 9 1017.8 1017.7 0.0
25/11:00am 27.8 27.1 15.5 47 7.5 N 13 20 7 11 1018.4 1018.3 0.0
25/10:30am 26.0 25.3 13.2 45 7.5 NNW 9 19 5 10 1019.2 1019.1 0.0
25/10:00am 25.7 24.7 13.5 46 7.1 WNW 11 17 6 9 1019.7 1019.6 0.0
25/09:30am 24.6 24.5 13.8 51 6.3 N 7 15 4 8 1020.3 1020.2 0.0
25/09:00am 23.6 23.5 13.8 54 5.7 NW 7 11 4 6 1020.7 1020.6 0.0
25/08:30am 23.1 22.3 13.0 53 5.8 ESE 9 13 5 7 1020.9 1020.8 0.0
25/08:00am 22.2 22.1 13.8 59 4.9 SW 7 13 4 7 1020.8 1020.7 0.0
25/07:30am 21.1 20.3 14.0 64 4.1 WSW 11 15 6 8 1021.2 1021.1 0.0
25/07:00am 19.8 19.4 14.2 70 3.2 W 9 13 5 7 1021.0 1020.9 0.0
25/06:30am 18.5 18.2 14.4 77 2.4 W 9 13 5 7 1021.0 1020.9 0.0
25/06:00am 17.2 17.2 14.1 82 1.8 WSW 7 9 4 5 1020.7 1020.6 0.0
25/05:30am 15.5 14.8 13.3 87 1.2 SSW 9 11 5 6 1020.1 1020.0 0.0
25/05:00am 15.9 17.0 13.6 86 1.3 CALM 0 0 0 0 1019.6 1019.5 0.0
25/04:30am 15.7 16.4 12.3 80 1.9 CALM 0 0 0 0 1019.4 1019.3 0.0
25/04:00am 16.8 17.9 13.5 81 1.9 CALM 0 0 0 0 1019.4 1019.3 0.0
25/03:30am 16.1 15.8 12.8 81 1.8 N 6 9 3 5 1019.4 1019.3 0.0
25/03:00am 16.9 16.7 13.0 78 2.2 N 6 7 3 4 1019.3 1019.2 0.0
25/02:30am 17.1 17.0 13.8 81 1.9 WSW 7 7 4 4 1019.3 1019.2 0.0
25/02:00am 16.9 17.2 13.4 80 2.0 N 4 7 2 4 1019.0 1018.9 0.0
25/01:30am 16.9 16.0 12.6 76 2.4 N 9 11 5 6 1019.4 1019.3 0.0
25/01:00am 18.1 17.5 13.6 75 2.5 NW 9 13 5 7 1019.8 1019.7 0.0
25/12:30am 18.4 16.8 13.9 75 2.6 N 15 19 8 10 1019.8 1019.7 0.0
25/12:00am 18.0 17.1 13.7 76 2.4 N 11 15 6 8 1020.9 1020.8 0.0
 
Date/Time
EST
Temp
°C
App
Temp
°C
Dew
Point
Rel
Hum
%
Delta-T
°C
Wind Press
QNH
hPa
Press
MSL
hPa
Rain
since 9 am
mm
Dir
 
Spd
km/h
Gust
km/h
Spd
kts
Gust
kts
24/11:30pm 18.9 18.1 14.0 73 2.8 N 11 15 6 8 1021.4 1021.3 0.0
24/11:00pm 19.8 18.7 14.2 70 3.2 N 13 20 7 11 1021.8 1021.7 0.0
24/10:30pm 19.6 17.6 14.0 70 3.2 N 17 24 9 13 1021.6 1021.5 0.0
24/10:00pm 20.2 17.8 14.3 69 3.4 N 20 26 11 14 1022.1 1022.0 0.0
24/09:30pm 20.6 19.2 14.5 68 3.6 N 15 22 8 12 1022.2 1022.1 0.0
24/09:00pm 20.5 18.4 14.6 69 3.4 N 19 24 10 13 1022.3 1022.2 0.0
24/08:30pm 20.5 18.1 14.4 68 3.6 NNE 20 26 11 14 1021.9 1021.8 0.0
24/08:00pm 20.9 17.7 14.3 66 3.8 N 24 33 13 18 1021.6 1021.5 0.0
24/07:30pm 20.9 17.8 14.5 67 3.7 NNE 24 32 13 17 1021.2 1021.1 0.0
24/07:00pm 20.8 17.7 14.5 67 3.7 NNE 24 35 13 19 1021.1 1021.0 0.0
24/06:30pm 21.2 17.6 14.1 64 4.1 N 26 37 14 20 1020.8 1020.7 0.0
24/06:00pm 21.5 17.9 14.2 63 4.2 NNE 26 37 14 20 1020.5 1020.4 0.0
24/05:30pm 22.2 18.3 14.3 61 4.6 N 28 37 15 20 1019.8 1019.7 0.0
24/05:00pm 22.8 18.3 14.9 61 4.7 NNE 32 39 17 21 1019.4 1019.3 0.0
24/04:30pm 23.6 19.2 15.1 59 5.1 NNE 32 39 17 21 1019.1 1019.0 0.0
24/04:00pm 24.7 20.7 15.1 55 5.7 N 30 37 16 20 1019.0 1018.9 0.0
24/03:30pm 25.6 21.7 15.6 54 6.1 NNE 30 39 16 21 1018.9 1018.8 0.0
24/03:00pm 25.5 22.0 15.5 54 6.0 NNE 28 37 15 20 1018.9 1018.8 0.0
24/02:30pm 26.5 23.4 15.5 50 6.7 NNE 26 33 14 18 1019.2 1019.1 0.0
24/02:00pm 26.4 22.6 14.8 49 7.0 N 28 37 15 20 1019.4 1019.3 0.0
24/01:30pm 27.1 23.6 14.5 46 7.6 NNE 26 35 14 19 1019.6 1019.5 0.0
24/01:00pm 27.1 25.3 14.5 46 7.5 N 17 32 9 17 1019.9 1019.8 0.0
24/12:30pm 26.9 24.9 14.0 45 7.7 N 17 24 9 13 1020.1 1020.0 0.0
24/12:00pm 27.5 25.3 14.5 45 7.8 NNE 19 24 10 13 1020.3 1020.2 0.0
24/11:30am 26.7 24.9 13.4 43 7.8 NNW 15 24 8 13 1020.9 1020.8 0.0
24/11:00am 26.3 24.9 13.4 45 7.6 NW 13 22 7 12 1021.4 1021.3 0.0
24/10:30am 25.0 23.8 12.9 47 7.0 NNE 11 20 6 11 1021.7 1021.6 0.0
24/10:00am 25.1 25.0 13.3 48 6.9 NNE 6 13 3 7 1022.1 1022.0 0.0
24/09:30am 24.5 24.1 14.0 52 6.2 N 9 19 5 10 1022.6 1022.5 0.0
24/09:00am 24.4 23.6 13.9 52 6.1 NNE 11 20 6 11 1022.7 1022.6 0.0
24/08:30am 23.0 21.8 14.0 57 5.3 N 13 22 7 12 1022.7 1022.6 0.0
24/08:00am 22.1 21.9 13.5 58 4.9 NNW 7 15 4 8 1022.9 1022.8 0.0
24/07:30am 20.8 20.8 13.7 64 4.1 WSW 6 9 3 5 1022.7 1022.6 0.0
24/07:00am 19.5 20.8 14.1 71 3.1 CALM 0 0 0 0 1022.6 1022.5 0.0
24/06:30am 17.2 17.0 13.7 80 2.0 S 7 9 4 5 1022.4 1022.3 0.0
24/06:00am 15.8 15.2 13.6 87 1.2 S 9 9 5 5 1022.2 1022.1 0.0
24/05:30am 14.4 13.9 12.6 89 1.0 S 7 9 4 5 1022.0 1021.9 0.0
24/05:00am 14.5 13.6 12.7 89 1.0 S 9 11 5 6 1021.6 1021.5 0.0
24/04:30am 15.0 13.9 13.0 88 1.1 SSE 11 11 6 6 1021.2 1021.1 0.0
24/04:00am 15.1 14.7 13.0 87 1.2 S 7 9 4 5 1021.0 1020.9 0.0
24/03:30am 15.2 14.8 12.5 84 1.5 SSE 6 7 3 4 1020.8 1020.7 0.0
24/03:00am 16.6 17.5 12.9 79 2.1 CALM 0 0 0 0 1020.6 1020.5 0.0
24/02:30am 17.0 17.9 12.9 77 2.3 CALM 0 0 0 0 1020.5 1020.4 0.0
24/02:00am 17.7 17.8 13.8 78 2.2 NNE 6 7 3 4 1020.6 1020.5 0.0
24/01:30am 17.3 17.9 13.2 77 2.3 N 2 6 1 3 1020.7 1020.6 0.0
24/01:22am 17.5 18.3 13.6 78 2.2 NNW 2 6 1 3 1020.7 1020.6 0.0
24/01:06am 17.2 17.0 13.1 77 2.3 WNW 6 7 3 4 1020.8 1020.7 0.0
24/01:00am 17.7 18.1 13.6 77 2.3 NW 4 6 2 3 1020.8 1020.7 0.0
24/12:30am 17.0 16.7 13.3 79 2.1 N 7 9 4 5 1020.9 1020.8 0.0
24/12:00am 18.2 17.3 13.7 75 2.6 NE 11 13 6 7 1021.2 1021.1 0.0
 
Date/Time
EST
Temp
°C
App
Temp
°C
Dew
Point
Rel
Hum
%
Delta-T
°C
Wind Press
QNH
hPa
Press
MSL
hPa
Rain
since 9 am
mm
Dir
 
Spd
km/h
Gust
km/h
Spd
kts
Gust
kts
23/11:30pm 18.5 17.9 13.6 73 2.8 NE 9 13 5 7 1021.5 1021.4 0.0
23/11:00pm 18.7 17.4 13.6 72 2.9 NNE 13 17 7 9 1021.5 1021.4 0.0
23/10:30pm 19.8 18.3 14.2 70 3.2 NE 15 17 8 9 1021.5 1021.4 0.0
23/10:00pm 19.8 18.3 14.2 70 3.2 NNE 15 19 8 10 1021.1 1021.0 0.0
23/09:30pm 20.4 18.5 14.1 67 3.6 NNE 17 20 9 11 1021.3 1021.2 0.0
23/09:00pm 20.1 18.5 13.8 67 3.6 NNE 15 19 8 10 1021.4 1021.3 0.0
23/08:30pm 20.5 20.0 13.7 65 3.9 NNE 9 15 5 8 1021.5 1021.4 0.0
23/08:00pm 20.6 18.1 13.6 64 4.0 NNE 19 22 10 12 1020.9 1020.8 0.0
23/07:30pm 20.8 18.4 13.7 64 4.1 NNE 19 28 10 15 1020.3 1020.2 0.0
23/07:00pm 20.9 18.2 13.6 63 4.2 NNE 20 30 11 16 1019.8 1019.7 0.0
23/06:30pm 20.9 17.4 13.4 62 4.3 N 24 32 13 17 1019.5 1019.4 0.0
23/06:00pm 21.2 17.4 13.6 62 4.4 NNE 26 35 14 19 1018.9 1018.8 0.0
23/05:30pm 21.9 18.8 13.5 59 4.8 NNE 22 32 12 17 1018.6 1018.5 0.0
23/05:00pm 23.3 19.9 13.8 55 5.5 NNE 24 32 13 17 1018.0 1017.9 0.0
23/04:30pm 23.9 19.9 14.0 54 5.8 N 28 33 15 18 1017.3 1017.2 0.0
23/04:00pm 25.1 21.2 14.3 51 6.4 NNE 28 35 15 19 1017.1 1017.0 0.0
23/03:30pm 26.4 22.7 13.9 46 7.4 N 26 33 14 18 1016.8 1016.7 0.0

Other Formats:

Comma delimited format used in spreadsheet applications
http://www.bom.gov.au/fwo/IDQ60801/IDQ60801.94575.axf

JavaScript Object Notation format (JSON) in row-major order
http://www.bom.gov.au/fwo/IDQ60801/IDQ60801.94575.json